Preview of NWS' New Version of Forecast
This preview is not operational and should not be used for support decisions.
Latest weather observations around

Williamsburg-Whitley County Airport (KBYL)

Using English Units (Switch to International System of Units)
Date/ Time (EDT) Wind (mph) Vis. (mi) Weather Sky Cond. Temp (°F) Rel. Humidity Wind Chill (°F) Heat Index (°F) Pressure Precip. (in)
Air Dwpt 6 hour Altimeter (inHg) Sea level (inHg) 1 hr 3 hr 6 hr
Max Min
Jul 22 01:15 SSE 5 10 Clear CLR 72 72     100%   73 30        
Jul 22 00:55 Calm 10 Clear   72 72     100%   73 30.01        
Jul 22 00:35 Calm 10 Clear   72 72     100%   73 30.01        
Jul 22 00:15 Calm 8 Clear   72 72     100%   73 30.01        
Jul 21 23:55 Calm 10 Clear   72 72     100%   73 30.01        
Jul 21 23:35 Calm 10 Clear   72 72     100%   73 30.01        
Jul 21 23:15 Calm 10 Clear   72 72     100%   73 30.01        
Jul 21 22:55 SE 5 10 Clear   72 72     100%   73 30.01        
Jul 21 22:35 Calm 10 Clear CLR 72 72     100%   73 30.01        
Jul 21 22:15 Calm 10 Clear   72 72     100%   73 30        
Jul 21 21:55 Calm 10 Clear   72 72     100%   73 30        
Jul 21 21:35 Calm 8 Clear   72 72     100%   73 30.01        
Jul 21 21:15 Calm 10 Clear   73 73     100%   75 30.01        
Jul 21 20:55 SSE 3 10 Clear   73 73     100%   75 30.01        
Jul 21 20:35 Calm 10 Clear CLR 73 73     100%   75 30        
Jul 21 20:15 Calm 10 Clear   73 73     100%   75 30.01        
Jul 21 19:55 Calm 10 Clear   75 75     100%   77 30        
Jul 21 19:35 Calm 10 Clear   73 73     100%   75 29.99        
Jul 21 19:15 S 5 10 Clear   72 72     100%   73 29.99        
Jul 21 18:55 S 6 10 Clear   72 72     100%   73 29.99        
Jul 21 18:35 Calm 5 Partly Cloudy SCT002 SCT120 72 72     100%   73 30   0    
Jul 21 18:15 Calm 6 Clear   72 72     100%   73 30.01        
Jul 21 17:55 Calm 9 Clear   72 72     100%   73 30.03        
Jul 21 17:35 SW 6 10 Mostly Cloudy FEW033 BKN044 73 73     100%   75 30.04        
Jul 21 17:15 W 6 10 Clear   75 73     94%   77 30.05        
Jul 21 16:55 W 10 10 Clear   79 73     84%   82 30.03        
Jul 21 16:35 SE 7 10 Clear   82 75     79%   89 30        
Jul 21 16:15 SW 3 10 Clear   81 73     79%   85 30.02        
Jul 21 15:15 SW 5 10 Clear   86 72     62%   92 30.01        
Jul 21 14:55 SSW 7 10 Clear   86 72     62%   92 30.02        
Jul 21 14:35 W 5 10 Mostly Clear FEW033 84 73     70%   91 30.02        
Jul 21 14:15 SW 5 10 Clear   84 72     66%   90 30.03        
Jul 21 13:55 SW 5 10 Clear   84 72     66%   90 30.04        
Jul 21 13:35 S 7 10 Clear   82 72     70%   87 30.05        
Jul 21 13:15 SSE 7 10 Clear   84 72     66%   90 30.05        
Jul 21 12:55 SSW 6 10 Clear   84 72     66%   90 30.06        
Jul 21 12:35 WSW 5 10 Clear   82 72     70%   87 30.06        
Jul 21 12:15 Calm 10 Clear   82 72     70%   87 30.07        
Jul 21 11:55 SW 5 10 Clear   81 72     74%   85 30.07        
Jul 21 11:35 SW 6 10 Clear   82 72     70%   87 30.06        
Jul 21 11:15 WSW 5 10 Clear   81 73     79%   85 30.07        
Jul 21 10:55 S 8 10 Clear   81 72     74%   85 30.06        
Jul 21 10:35 SSW 7 10 Clear   79 73     84%   82 30.06        
Jul 21 10:15 S 9 10 Clear   77 73     89%   79 30.06        
Jul 21 09:55 S 6 10 Clear   77 73     89%   79 30.07        
Jul 21 09:35 Calm 10 Clear   75 73     94%   77 30.07        
Jul 21 09:15 Calm 10 Clear   73 73     100%   75 30.08        
Jul 21 08:55 Calm 10 Clear   73 73     100%   75 30.08        
Jul 21 08:35 Calm 10 Clear   73 73     100%   75 30.08        
Jul 21 08:15 Calm 10 Clear   72 72     100%   73 30.07        
Jul 21 07:55 Calm 10 Clear   70 70     100%     30.06        
Jul 21 07:35 Calm 1.25 Clear   68 68     100%     30.06        
Jul 21 07:15 Calm 7 Clear   68 68     100%     30.06        
Jul 21 06:55 Calm 2.5 Clear   68 68     100%     30.05        
Jul 21 06:35 Calm 5 Clear   68 68     100%     30.04        
Jul 21 06:15 Calm 0.5 Clear   68 68     100%     30.04        
Jul 21 05:55 S 3 0.5 Clear   68 68     100%     30.03        
Jul 21 05:35 Calm 7 Clear   68 68     100%     30.03        
Jul 21 05:15 Calm 9 Clear   68 68     100%     30.04        
Jul 21 04:55 Calm 1.5 Clear   68 68     100%     30.04        
Jul 21 04:35 Calm 3 Clear   68 68     100%     30.03        
Jul 21 04:15 Calm 7 Clear   68 68     100%     30.02        
Jul 21 03:55 Calm 4 Clear   68 68     100%     30.01        
Jul 21 03:35 Calm 9 Clear   68 68     100%     30.01        
Jul 21 03:15 Calm 9 Clear   68 68     100%     30.02        
Jul 21 02:55 Calm 9 Clear   68 68     100%     30.02        
Jul 21 02:35 Calm 10 Clear   68 68     100%     30.03        
Jul 21 02:15 NNW 5 10 Clear   68 68     100%     30.04        
Jul 21 01:55 Calm 9 Clear   68 68     100%     30.04        
Jul 21 01:35 SSE 3 10 Clear   70 70     100%     30.02        
Jul 21 01:15 SSE 5 10 Clear   72 72     100%   73 30.03        
Jul 21 00:55 S 3 10 Clear   72 72     100%   73 30.04        
Jul 21 00:35 ESE 3 10 Clear   70 70     100%     30.04        
Jul 21 00:15 Calm 10 Clear   72 72     100%   73 30.04        
Jul 20 23:55 Calm 10 Clear   72 72     100%   73 30.05        
Jul 20 23:35 SSE 3 10 Clear   72 72     100%   73 30.05        
Jul 20 23:15 SSE 6 10 Clear CLR 72 72     100%   73 30.05        
Jul 20 22:55 Calm 10 Clear   72 72     100%   73 30.05        
Jul 20 22:35 Calm 10 Clear CLR 72 72     100%   73 30.04        
Jul 20 22:15 Calm 10 Clear   72 70     94%   73 30.02        
Jul 20 21:55 Calm 10 Clear   72 70     94%   73 30.03        
Jul 20 21:35 Calm 10 Clear   72 70     94%   73 30.04        
Jul 20 21:15 SSW 5 10 Clear   73 70     89%   75 30.04        
Jul 20 20:55 SSW 3 10 Clear   73 70     89%   75 30.04        
Jul 20 20:35 SW 6 10 Clear CLR 73 68     83%   74 30.04        
Jul 20 20:15 SW 3 10 Clear   75 70     83%   76 30.04        
Jul 20 19:55 Calm 10 Clear   75 72     89%   77 30.06        
Jul 20 19:35 WSW 3 10 Clear   75 68     78%   76 30.05        
Jul 20 19:15 SSW 6 10 Clear   75 66     74%   76 30.04        
Notice The following observation data may not be complete
Jul 20 18:55 SE 10 10 Clear     66      %     30.01        
Jul 20 18:35   10 Clear   82 72     70%   87 30.03        
Jul 20 18:15 SE 8 10 Clear   88 75     66%   98 30.01        
Jul 20 17:55 ESE 6 10 Clear   91 75     59%   103 29.98        
Jul 20 17:35 Calm 10 Clear   90 75     63%   100 29.98        
Jul 20 17:15 Calm 10 Clear   90 73     59%   98 29.99        
Jul 20 16:55 Calm 10 Clear   91 72     53%   99 30        
Jul 20 16:35 ENE 5 10 Clear   91 73     56%   101 30.01        
Jul 20 16:15 Calm 10 Clear   90 73     59%   98 30.02        
Jul 20 15:55 NE 5 10 Clear   91 75     59%   103 30.03        
Jul 20 15:35 Calm 10 Clear   90 73     59%   98 30.03        
Jul 20 15:15 Calm 10 Clear   90 75     63%   100 30.02        
Jul 20 14:55 Calm 10 Mostly Clear FEW035 90 73     59%   98 30.02        
Jul 20 14:35 Calm 10 Clear   90 73     59%   98 30.02        
Jul 20 14:15 Calm 10 Clear   90 73     59%   98 30.03        
Jul 20 13:55 SE 6 10 Clear   88 73     63%   96 30.03        
Jul 20 13:35 Calm 10 Clear   88 73     62%   96 30.04        
Jul 20 13:15 S 6 10 Clear   88 73     62%   96 30.05        
Jul 20 12:55 Calm 10 Clear CLR 86 73     66%   93 30.07        
Jul 20 12:35 ENE 3 10 Clear   86 73     66%   93 30.07        
Jul 20 12:15 Calm 10 Clear   86 75     70%   95 30.07        
Jul 20 11:55 NNE 3 10 Clear   84 75     74%   92 30.08        
Jul 20 11:35 Calm 10 Clear   84 77     79%   94 30.08        
Jul 20 11:15 Calm 10 Clear CLR 82 75     79%   89 30.08        
Jul 20 10:55 Calm 10 Clear   82 75     79%   89 30.08        
Jul 20 10:35 Calm 10 Clear   82 75     79%   89 30.09        
Jul 20 10:15 SW 3 10 Clear   81 75     84%   86 30.09        
Jul 20 09:55 Calm 10 Clear   77 75     94%   79 30.11        
Jul 20 09:35 Calm 10 Clear   75 75     100%   77 30.11        
Jul 20 09:15 Calm 10 Clear   75 75     100%   77 30.11        
Jul 20 08:55 Calm 9 Clear   75 75     100%   77 30.11        
Jul 20 08:35 Calm 1.5 Clear   73 73     100%   75 30.1        
Jul 20 08:15 SE 3 3 Clear   72 72     100%   73 30.1        
Jul 20 07:55 Calm 1.5 Clear   72 72     100%   73 30.1        
Jul 20 07:35 Calm   Clear   72 72     100%   73 30.09        
Jul 20 07:15 Calm 2 Clear   70 70     100%     30.09        
Jul 20 06:55 Calm 2.5 Clear   72 72     100%   73 30.08        
Jul 20 06:35 Calm 2.5 Clear   68 68     100%     30.08        
Jul 20 06:15 Calm 0.75 Clear   68 68     100%     30.07        
Jul 20 05:55 Calm 4 Clear   72 72     100%   73 30.07        
Jul 20 05:35 Calm 6 Clear   72 72     100%   73 30.07        
Jul 20 05:15 Calm 6 Clear CLR 72 72     100%   73 30.07        
Jul 20 04:55 Calm 5 Clear   72 72     100%   73 30.07        
Jul 20 04:35 Calm 9 Clear   72 72     100%   73 30.06        
Jul 20 04:15 Calm 9 Clear   72 72     100%   73 30.07        
Jul 20 03:55 Calm 10 Clear   72 72     100%   73 30.06        
Jul 20 03:35 Calm 5 Clear   72 72     100%   73 30.06        
Jul 20 03:15 Calm 8 Clear   72 72     100%   73 30.06        
Jul 20 02:55 Calm 7 Clear   72 72     100%   73 30.06        
Jul 20 02:35 Calm 4 Clear   72 72     100%   73 30.06        
Jul 20 02:15 Calm 5 Clear   72 72     100%   73 30.05        
Jul 20 01:55 Calm 6 Clear   72 72     100%   73 30.05        
Jul 20 01:35 Calm 10 Clear   73 73     100%   75 30.05        
Jul 20 01:15 Calm 7 Clear   73 73     100%   75 30.06        
Jul 20 00:55 Calm 10 Clear   73 73     100%   75 30.05        
Jul 20 00:35 Calm 10 Clear CLR 73 73     100%   75 30.05        
Jul 20 00:15 Calm 10 Clear   73 73     100%   75 30.06        
Jul 19 23:55 Calm 10 Clear   73 73     100%   75 30.06        
Jul 19 23:35 NW 3 10 Clear   75 75     100%   77 30.07        
Jul 19 23:15 Calm 10 Clear   77 75     94%   79 30.06        
Jul 19 22:55 Calm 10 Clear   77 75     94%   79 30.07        
Jul 19 22:35 Calm 10 Clear   77 75     94%   79 30.07        
Jul 19 22:15 Calm 10 Clear   77 73     89%   79 30.07        
Jul 19 21:55 Calm 10 Clear   77 75     94%   79 30.06        
Jul 19 21:35 Calm 10 Clear   79 75     89%   82 30.05        
Jul 19 21:15 Calm 10 Clear   79 75     89%   82 30.04        
Jul 19 20:55 SW 3 10 Clear   81 75     84%   86 30.03        
Jul 19 20:35 SW 3 10 Partly Cloudy SCT042 81 75     84%   86 30.03        
Jul 19 20:15 SW 5 10 Clear   82 77     84%   91 30.03        
Jul 19 19:55 Calm 10 Clear   84 75     74%   92 30.03        
Jul 19 19:35 Calm 10 Clear   86 75     70%   95 30.02        
Jul 19 19:15 Calm 10 Clear   86 75     70%   95 30.03        
Jul 19 18:55 Calm 10 Clear   88 73     63%   96 30.02        
Jul 19 18:35 Calm 10 Clear CLR 91 73     56%   101 30.02        
Jul 19 18:15 Calm 10 Clear CLR 91 73     56%   101 30.03        
Jul 19 17:55 Calm 10 Clear   91 73     56%   101 30.03        
Jul 19 17:35 Calm 10 Clear   90 73     59%   98 30.04        
Jul 19 17:15 SW 3 10 Clear   91 73     56%   101 30.04        
Jul 19 16:55 Calm 10 Clear   91 73     56%   101 30.04        
Jul 19 16:35 SE 3 10 Clear CLR 91 73     56%   101 30.05        
Jul 19 16:15 Calm 10 Clear   90 73     59%   98 30.05        
Jul 19 15:55 Calm 10 Clear   90 72     56%   96 30.05        
Jul 19 15:35 S 7 10 Clear   90 73     59%   98 30.05        
Jul 19 15:15 Calm 10 Clear   90 75     63%   100 30.06        
Jul 19 14:55 S 3 10 Clear   90 73     59%   98 30.07        
Jul 19 14:35 Calm 10 Clear CLR 88 73     62%   96 30.08        
Jul 19 14:15 WNW 3 10 Clear   86 75     70%   95 30.09        
Jul 19 13:55 Calm 10 Clear   86 73     66%   93 30.09        
Jul 19 13:35 Calm 10 Clear   86 73     66%   93 30.1        
Jul 19 13:15 Calm 10 Clear   86 75     70%   95 30.1        
Jul 19 12:55 Calm 10 Clear   84 77     79%   94 30.11        
Jul 19 12:35 WSW 3 10 Clear   84 75     74%   92 30.11        
Jul 19 12:15 Calm 10 Clear   84 75     74%   92 30.12        
Jul 19 11:55 Calm 10 Clear   82 75     79%   89 30.12        
Jul 19 11:35 Calm 10 Mostly Clear FEW018 82 75     79%   89 30.12        
Jul 19 11:15 Calm 10 Clear   81 75     84%   86 30.12        
Jul 19 10:55 SW 5 10 Clear   81 73     79%   85 30.12        
Jul 19 10:35 WSW 3 10 Clear   81 73     79%   85 30.12        
Jul 19 10:15 SW 6 10 Clear   77 73     89%   79 30.12        
Jul 19 09:55 SSW 3 10 Clear   77 73     89%   79 30.13        
Jul 19 09:35 Calm 10 Clear   77 75     94%   79 30.12        
Jul 19 09:15 Calm 10 Clear   75 73     94%   77 30.12        
Jul 19 08:55 Calm 10 Clear   75 75     100%   77 30.11        
Jul 19 08:35 Calm 10 Clear   75 75     100%   77 30.1        
Jul 19 08:15 Calm 10 Clear   73 73     100%   75 30.1        
Jul 19 07:55 SE 5 7 Clear   73 73     100%   75 30.1        
Jul 19 07:35 SSE 3 5 Clear   72 72     100%   73 30.1        
Jul 19 07:15 Calm 5 Clear   72 72     100%   73 30.09        
Jul 19 06:55 Calm 3 Clear   70 70     100%     30.09        
Jul 19 06:35 Calm 5 Clear CLR 72 72     100%   73 30.08        
Jul 19 06:15 Calm 8 Clear   72 72     100%   73 30.07        
Jul 19 05:55 Calm 10 Clear   72 72     100%   73 30.07        
Jul 19 05:35 Calm 9 Clear CLR 72 72     100%   73 30.06        
Jul 19 05:15 Calm 10 Clear   72 72     100%   73 30.06        
Jul 19 04:55 Calm 10 Clear   72 72     100%   73 30.06        
Jul 19 04:35 Calm 10 Clear   72 72     100%   73 30.06        
Jul 19 04:15 Calm 10 Clear   72 72     100%   73 30.06        
Jul 19 03:55 Calm 10 Clear   73 73     100%   75 30.05        
Jul 19 03:35 Calm 10 Clear   73 73     100%   75 30.05        
Jul 19 03:15 SSW 3 10 Clear   73 73     100%   75 30.06        
Jul 19 02:55 SSW 3 10 Clear   73 73     100%   75 30.06        
Jul 19 02:35 Calm 10 Clear   73 73     100%   75 30.06        
Jul 19 02:15 Calm 10 Clear   73 73     100%   75 30.06        
Jul 19 01:55 Calm 10 Clear   73 73     100%   75 30.06        
Jul 19 01:35 Calm 10 Clear CLR 73 73     100%   75 30.06        
Jul 19 01:15 WSW 3 10 Clear CLR 73 73     100%   75 30.05        
Jul 19 00:55 SSW 5 10 Clear   73 73     100%   75 30.04        
Jul 19 00:35 SSW 5 10 Clear   73 73     100%   75 30.04        
Jul 19 00:15 Calm 10 Clear   73 73     100%   75 30.04        
Jul 18 23:55 SW 3 10 Clear   73 73     100%   75 30.04        
Jul 18 23:35 Calm 9 Clear   73 73     100%   75 30.04        
Jul 18 23:15 Calm 10 Clear   73 73     100%   75 30.03        
Jul 18 22:55 ESE 3 10 Clear   75 75     100%   77 30.03        
Jul 18 22:35 Calm 10 Clear   73 73     100%   75 30.03        
Jul 18 22:15 Calm 10 Clear   75 75     100%   77 30.03        
Jul 18 21:55 Calm 10 Clear   75 75     100%   77 30.02        
Jul 18 21:35 S 6 10 Clear   77 77     100%   79 30.01        
Jul 18 21:15 Calm 10 Clear   77 75     94%   79 30.02        
Jul 18 20:55 Calm 10 Clear   81 73     79%   85 30.02        
Jul 18 20:35 Calm 10 Clear CLR 82 73     74%   88 30.02        
Jul 18 20:15 Calm 10 Clear CLR 82 73     74%   88 30.03        
Jul 18 19:55 Calm 10 Clear   82 73     74%   88 30.02        
Jul 18 19:35 WNW 3 10 Clear   84 73     70%   91 30.01        
Jul 18 19:15 NW 5 10 Clear   84 73     70%   91 30.01        
Jul 18 18:55 WNW 5 10 Clear   84 72     66%   90 30.01        
Jul 18 18:35 NW 8 10 Mostly Clear FEW032 86 73     66%   93 30.01        
Jul 18 18:15 NW 3 10 Clear   86 73     66%   93 30.01        
Jul 18 17:55 WNW 5 10 Clear   84 73     70%   91 30.01        
Jul 18 17:35 NW 3 10 Clear   86 73     66%   93 30.01        
Jul 18 17:15 N 5 10 Clear   86 72     62%   92 30.01        
Jul 18 16:55 W 5 10 Clear   86 73     66%   93 30.01        
Jul 18 16:35 NW 6 10 Clear CLR 86 72     62%   92 30.01        
Jul 18 16:15 WNW 6 10 Clear   86 72     62%   92 30.01        
Jul 18 15:55 NNW 10 10 Clear CLR 86 72     62%   92 30.02        
Jul 18 15:35 NW 7 10 Clear   86 68     55%   89 30.02        
Jul 18 15:15 WNW 8 10 Clear   86 70     59%   91 30.02        
Jul 18 14:55 WNW 7 10 Clear   84 72     66%   90 30.03        
Jul 18 14:35 W 6 10 Clear   84 72     66%   90 30.04        
Jul 18 14:15 W 6 10 Clear   84 72     66%   90 30.05        
Jul 18 13:55 WSW 8 10 Clear   84 72     66%   90 30.06        
Jul 18 13:35 W 8 10 Clear   84 72     66%   90 30.07        
Jul 18 13:15 W 5 10 Clear   82 72     70%   87 30.07        
Jul 18 12:55 WSW 6 10 Clear   82 72     70%   87 30.07        
Jul 18 12:35 W 6 10 Clear   82 72     70%   87 30.07        
Jul 18 12:15 WSW 7 10 Clear   82 72     70%   87 30.07        
Jul 18 11:55 W 6 10 Clear   82 70     66%   86 30.07        
Jul 18 11:35 W 3 10 Clear   82 72     70%   87 30.06        
Jul 18 11:15 SW 5 10 Clear   82 73     74%   88 30.06        
Jul 18 10:55 WSW 7 10 Clear   81 72     74%   85 30.07        
Jul 18 10:35 WSW 5 10 Clear   81 73     79%   85 30.07        
Jul 18 10:15 WSW 6 10 Partly Cloudy FEW016 SCT041 81 75     84%   86 30.07        
Jul 18 09:55 WSW 5 10 Clear   77 75     94%   79 30.07        
Jul 18 09:35 W 5 10 Clear   77 77     100%   79 30.07        
Jul 18 09:15 Calm 10 Clear   77 77     100%   79 30.06        
Jul 18 08:55 SSW 3 9 Clear   75 75     100%   77 30.06        
Jul 18 08:35 SSW 3 9 Clear   75 75     100%   77 30.05        
Jul 18 08:15 SSW 3 9 Clear   73 73     100%   75 30.05        
Jul 18 07:55 Calm 9 Clear   73 73     100%   75 30.06        
Jul 18 07:35 Calm 6 Clear   73 73     100%   75 30.05        
Jul 18 07:15 Calm 3 Clear   73 73     100%   75 30.05        
Jul 18 06:55 Calm 3 Clear   73 73     100%   75 30.05        
Jul 18 06:35 Calm 1 Cloudy OVC013 73 73     100%   75 30.04        
Jul 18 06:15 Calm 5 Clear   73 73     100%   75 30.04        
Jul 18 05:55 Calm 5 Clear   73 73     100%   75 30.03        
Jul 18 05:35 Calm 9 Clear   73 73     100%   75 30.03        
Jul 18 05:15 Calm 5 Clear   73 73     100%   75 30.02        
Jul 18 04:55 Calm 8 Clear   73 73     100%   75 30.02        
Jul 18 04:35 ENE 3 9 Clear   73 73     100%   75 30.01        
Jul 18 04:15 Calm 10 Clear   73 73     100%   75 30.01        
Jul 18 03:55 Calm 10 Clear   73 73     100%   75 30.01        
Jul 18 03:35 Calm 8 Clear   73 73     100%   75 30.01        
Jul 18 03:15 Calm 10 Clear   73 73     100%   75 30.01        
Jul 18 02:55 Calm 10 Clear   73 73     100%   75 30.03        
Jul 18 02:35 Calm 7 Clear   73 73     100%   75 30.03        
Jul 18 02:15 Calm 10 Clear   73 73     100%   75 30.03        
Jul 18 01:55 SW 3 10 Clear   73 73     100%   75 30.03        
Jul 18 01:35 Calm 10 Clear   72 72     100%   73 30.04        
Jul 18 01:15 SSW 3 6 Clear   72 72     100%   73 30.05        
Jul 18 00:55 Calm 3 Clear   72 72     100%   73 30.05        
Jul 18 00:35 Calm 5 Clear   72 72     100%   73 30.05        
Jul 18 00:15 Calm 10 Mostly Clear FEW002 FEW017 FEW050 72 72     100%   73 30.05        
Jul 17 23:55 S 7 3 Clear   72 72     100%   73 30.05        
Jul 17 23:35 Calm 3 Clear   70 70     100%     30.06        
Jul 17 23:15 Calm 10 Clear   70 70     100%     30.06        
Jul 17 22:55 Calm 10 Clear   72 72     100%   73 30.06        
Jul 17 22:35 WNW 5 3 Mostly Cloudy FEW005 BKN027 BKN060 72 72     100%   73 30.06   0    
Jul 17 22:15 Calm 7 Clear   72 72     100%   73 30.05        
Jul 17 21:55 W 3 2 Clear   75 75     100%   77 30.06        
Jul 17 21:35 SSW 3 10 Clear   75 75     100%   77 30.03        
Jul 17 21:15 Calm 10 Clear   77 75     94%   79 30.03        
Jul 17 20:55 Calm 10 Mostly Clear FEW050 77 75     94%   79 30.02        
Jul 17 20:35 S 3 10 Clear   77 75     94%   79 30.02        
Jul 17 20:15 SW 3 10 Clear   77 75     94%   79 30.02        
Jul 17 19:55 WSW 3 10 Clear   77 75     94%   79 30.02        
Jul 17 19:35 WSW 3 10 Clear   81 75     84%   86 30.01        
Jul 17 19:15 SW 5 10 Clear   82 75     79%   89 30        
Jul 17 18:55 SW 3 10 Clear   82 75     79%   89 30.01        
Jul 17 18:35 WSW 5 10 Partly Cloudy FEW021 FEW028 SCT034 81 75     84%   86 30.01        
Jul 17 18:15 WSW 6 10 Clear   82 75     79%   89 30.01        
Jul 17 17:55 WSW 5 10 Clear   81 77     89%   87 30.02        
Jul 17 17:35 SW 5 10 Clear   81 77     89%   87 30.03        
Jul 17 17:15 WSW 6 10 Clear   79 77     94%   83 30.03        
Jul 17 16:55 Calm 10 Mostly Cloudy BKN009 BKN015 BKN035 75 75     100%   77 30.03   0    
Jul 17 16:35 SSW 7 8 Clear   75 75     100%   77 30.03        
Jul 17 16:15 WSW 3 1.25 Clear   75 75     100%   77 30.03        
Jul 17 15:55 WSW 5 8 Clear   77 75     94%   79 30.04        
Jul 17 15:35 SW 7 10 Clear   77 75     94%   79 30.04        
Jul 17 15:15 SSW 7 10 Clear   79 75     89%   82 30.05        
Jul 17 14:55 SW 3 10 Clear   81 75     84%   86 30.06        
Jul 17 14:35 SSW 9 10 Clear   79 75     89%   82 30.06        
Jul 17 14:15 Calm 9 Clear   75 75     100%   77 30.07        
Jul 17 13:55 W 5 5 Clear   75 75     100%   77 30.07        
Jul 17 13:35 W 3 8 Clear   77 75     94%   79 30.07        
Jul 17 13:15 WSW 6 5 Clear   75 75     100%   77 30.08        
Jul 17 12:55 SW 5 10 Clear   77 73     89%   79 30.08        
Jul 17 12:35 SW 9 10 Mostly Cloudy BKN019 77 73     89%   79 30.08        
Jul 17 12:15 SSW 10 10 Clear   77 73     89%   79 30.08        
Jul 17 11:55 SW 10 10 Cloudy OVC018 75 73     94%   77 30.08        
Jul 17 11:35 SW 13 10 Cloudy OVC016 75 73     94%   77 30.08        
Jul 17 11:15 SW 5 10 Mostly Cloudy BKN016 75 73     94%   77 30.08        
Jul 17 10:35 SW 8 10 Clear   73 73     100%   75 30.09        
Jul 17 10:15 SW 5 10 Clear   73 73     100%   75 30.08        
Jul 17 09:55 SW 9 10 Clear   73 73     100%   75 30.09        
Jul 17 09:35 WSW 6 10 Clear   73 73     100%   75 30.08        
Jul 17 09:15 SSW 6 10 Clear   73 73     100%   75 30.08        
Jul 17 08:55 SSW 5 10 Clear   73 73     100%   75 30.07        
Jul 17 08:35 SW 9 10 Clear   72 72     100%   73 30.08        
Jul 17 08:15 SW 8 10 Clear   72 72     100%   73 30.07        
Jul 17 07:55 SSW 5 10 Clear   72 72     100%   73 30.07        
Jul 17 07:35 Calm 10 Clear   72 72     100%   73 30.06        
Jul 17 07:15 Calm 5 Clear   72 72     100%   73 30.06        
Jul 17 06:55 S 5 7 Clear   70 70     100%     30.06        
Jul 17 06:35 SSW 7 2 Clear   70 70     100%     30.06        
Jul 17 06:15 SW 7 3 Clear   72 72     100%   73 30.06        
Jul 17 05:55 WSW 9 5 Clear   73 72     94%   75 30.06        
Jul 17 05:35 WSW 3 10 Clear   73 70     89%   75 30.05        
Jul 17 05:15 SW 3 10 Clear   73 70     89%   75 30.05        
Jul 17 04:55 SSW 5 10 Clear   73 70     89%   75 30.04        
Jul 17 04:35 SSW 3 10 Clear   73 70     89%   75 30.04        
Jul 17 04:15 S 7 10 Clear   73 70     89%   75 30.04        
Jul 17 03:55 SSW 6 10 Clear   73 68     83%   74 30.04        
Jul 17 03:35 SSW 6 10 Clear   73 70     89%   75 30.05        
Jul 17 03:15 SSW 3 10 Clear   73 72     94%   75 30.05        
Jul 17 02:55 Calm 10 Clear   72 72     100%   73 30.06        
Jul 17 02:35 Calm 10 Clear   72 72     100%   73 30.06        
Jul 17 02:15 Calm 10 Clear   72 72     100%   73 30.07        
Jul 17 01:55 Calm 10 Clear   72 72     100%   73 30.07        
Jul 17 01:35 SSW 3 10 Clear CLR 72 72     100%   73 30.08        
Jul 17 01:15 SSW 5 10 Clear   72 72     100%   73 30.08        
Jul 17 00:55 Calm 10 Clear   72 72     100%   73 30.08        
Jul 17 00:35 Calm 10 Clear   72 72     100%   73 30.08        
Jul 17 00:15 W 3 10 Clear   72 72     100%   73 30.09        
Jul 16 23:55 Calm 10 Clear   72 72     100%   73 30.08        
Jul 16 23:35 WSW 3 10 Clear   72 72     100%   73 30.09        
Jul 16 23:15 SW 3 10 Clear CLR 72 72     100%   73 30.09        
Jul 16 22:55 SSW 3 10 Clear   72 72     100%   73 30.09        
Jul 16 22:35 SW 5 2.5 Mostly Cloudy FEW001 SCT044 BKN050 73 72     94%   75 30.1   0    
Jul 16 22:15 SW 3 10 Clear   79 68     70%   80 30.07        
Jul 16 21:55 SSW 5 10 Clear   81 68     66%   83 30.06        
Jul 16 21:35 SW 3 10 Clear CLR 79 68     70%   80 30.06        
Jul 16 18:55 S 8 10 Clear   86 70     59%   91 30.05        
Jul 16 18:35 S 8 10 Clear CLR 86 68     55%   89 30.05        
Jul 16 18:15 S 10 10 Clear CLR 88 68     52%   91 30.05        
Jul 16 17:55 S 9 10 Clear   88 70     55%   93 30.05        
Jul 16 17:35 SSW 7 10 Clear   88 68     52%   91 30.06        
Jul 16 17:15 SSW 10 10 Clear   88 68     52%   91 30.07        
Jul 16 16:55 S 10 10 Clear   88 68     52%   91 30.07        
Jul 16 16:35 S 15 10 Clear   88 68     52%   91 30.07        
Jul 16 16:15 SSW 7 10 Clear CLR 88 68     52%   91 30.08        
Jul 16 15:55 SSW 9 10 Clear   88 68     52%   91 30.08        
Jul 16 15:35 SSW 9 10 Clear CLR 88 70     55%   93 30.09        
Jul 16 15:15 S 14 10 Clear   88 70     55%   93 30.1        
Jul 16 14:55 S 10 10 Clear   86 70     59%   91 30.11        
Jul 16 14:35 S 14 10 Partly Cloudy SCT043 86 70     59%   91 30.11        
Jul 16 14:15 SSE 12 10 Partly Cloudy SCT043 86 72     62%   92 30.12        
Jul 16 13:55 S 8 10 Clear   86 72     62%   92 30.13        
Jul 16 13:35 S 13 10 Clear   86 72     62%   92 30.13        
Jul 16 13:15 S 9 10 Clear   84 72     66%   90 30.13        
Jul 16 12:55 SW 9 10 Clear   86 72     62%   92 30.14        
Jul 16 12:35 S 9 10 Partly Cloudy SCT031 SCT042 84 73     70%   91 30.14        
Jul 16 12:15 SW 5 10 Clear   82 73     74%   88 30.14        
Jul 16 11:55 SSE 7 10 Clear   84 73     70%   91 30.14        
Jul 16 11:35 SSE 9 10 Clear CLR 82 73     74%   88 30.15        
Jul 16 11:15 S 8 10 Clear   82 73     74%   88 30.15        
Jul 16 10:55 SSE 5 10 Clear   81 73     79%   85 30.15        
Jul 16 10:35 S 3 10 Clear   81 73     79%   85 30.16        
Jul 16 10:15 SE 6 10 Clear   79 73     84%   82 30.15        
Jul 16 09:55 SSE 6 10 Clear   81 73     79%   85 30.16        
Jul 16 09:35 SSE 8 10 Clear CLR 81 73     79%   85 30.15        
Jul 16 09:15 SE 8 10 Clear CLR 79 73     84%   82 30.15        
Jul 16 08:55 SE 6 10 Clear   75 73     94%   77 30.15        
Jul 16 08:35 SE 7 10 Clear CLR 75 73     94%   77 30.15        
Jul 16 08:15 SE 6 10 Clear   73 73     100%   75 30.14        
Jul 16 07:55 SE 6 10 Clear   72 72     100%   73 30.14        
Jul 16 07:35 SE 6 10 Clear CLR 72 72     100%   73 30.13        
Jul 16 07:15 SE 6 10 Clear   72 72     100%   73 30.14        
Jul 16 06:55 SE 6 10 Clear   72 72     100%   73 30.13        
Jul 16 06:35 ESE 6 10 Clear   72 72     100%   73 30.13        
Jul 16 06:15 SE 7 10 Clear   72 72     100%   73 30.13        
Jul 16 05:55 SE 7 10 Clear CLR 72 72     100%   73 30.13        
Jul 16 05:35 SE 6 10 Clear   72 72     100%   73 30.12        
Jul 16 05:15 SE 6 10 Clear   72 72     100%   73 30.12        
Jul 16 04:55 SE 6 10 Clear   72 72     100%   73 30.12        
Jul 16 04:35 Calm 10 Clear   72 72     100%   73 30.12        
Jul 16 03:55 Calm 10 Clear   70 70     100%     30.11        
Jul 16 03:35 Calm 10 Clear   70 70     100%     30.11        
Jul 16 03:15 Calm 10 Clear   70 70     100%     30.11        
Jul 16 02:55 Calm 10 Clear   70 70     100%     30.12        
Jul 16 02:35 Calm 10 Clear   70 70     100%     30.12        
Jul 16 02:15 ESE 3 10 Clear   70 70     100%     30.12        
Jul 16 01:55 Calm 10 Clear   68 68     100%     30.13        
Jul 16 01:35 Calm 10 Clear   70 70     100%     30.13        
Jul 16 01:15 Calm 10 Clear   68 68     100%     30.13        
Jul 16 00:55 Calm 10 Clear   68 68     100%     30.14        
Jul 16 00:35 Calm 10 Clear   70 70     100%     30.15        
Jul 16 00:15 Calm 10 Clear   70 70     100%     30.15        
Jul 15 23:55 Calm 10 Clear   70 70     100%     30.15        
Jul 15 23:35 Calm 10 Clear   70 70     100%     30.15        
Jul 15 23:15 Calm 10 Clear   72 72     100%   73 30.15        
Jul 15 22:55 Calm 10 Clear   72 72     100%   73 30.15        
Jul 15 22:35 Calm 10 Clear   72 72     100%   73 30.15        
Jul 15 22:15 Calm 10 Clear   72 72     100%   73 30.15        
Jul 15 21:55 ENE 3 10 Clear   72 72     100%   73 30.15        
Jul 15 21:35 Calm 10 Clear   72 70     94%   73 30.15        
Jul 15 21:15 E 5 10 Clear   72 72     100%   73 30.14        
Jul 15 20:55 E 3 10 Clear   73 72     94%   75 30.14        
Jul 15 20:35 Calm 10 Clear   73 72     94%   75 30.15        
Jul 15 20:15 Calm 10 Mostly Clear FEW041 73 70     89%   75 30.15        
Jul 15 19:55 Calm 10 Clear   73 70     89%   75 30.15        
Jul 15 19:35 ESE 3 10 Mostly Cloudy BKN041 75 68     78%   76 30.15        
Jul 15 19:15 N 3 10 Mostly Clear FEW035 73 68     83%   74 30.13        
Jul 15 18:55 NNW 7 10 Clear   75 68     78%   76 30.13        
Jul 15 18:35 NW 5 10 Clear   79 72     79%   82 30.12        
Jul 15 18:15 NE 3 10 Mostly Clear FEW046 82 75     79%   89 30.12        
Jul 15 17:55 Calm 10 Clear   84 73     70%   91 30.12        
Jul 15 17:35 Calm 10 Clear   84 73     70%   91 30.12        
Jul 15 17:15 ESE 3 10 Clear   84 75     74%   92 30.13        
Jul 15 16:55 Calm 10 Clear   84 75     74%   92 30.13        
Jul 15 16:35 SE 3 10 Partly Cloudy FEW032 SCT041 84 75     74%   92 30.13        
Jul 15 16:15 Calm 10 Mostly Clear FEW032 86 73     66%   93 30.14        
Jul 15 15:55 Calm 10 Clear   84 73     70%   91 30.14        
Jul 15 15:35 S 3 10 Clear   86 73     66%   93 30.14        
Jul 15 15:15 SSE 5 10 Clear   84 73     70%   91 30.14        
Jul 15 14:55 S 6 10 Clear   84 73     70%   91 30.15        
Jul 15 14:35 SSW 7 10 Mostly Clear FEW033 86 73     66%   93 30.16        
Jul 15 14:15 SSW 6 10 Clear   86 73     66%   93 30.17        
Jul 15 13:55 Calm 10 Clear   86 72     62%   92 30.17        
Jul 15 13:35 SSW 3 10 Clear   84 72     66%   90 30.18        
Jul 15 13:15 Calm 10 Clear   84 72     66%   90 30.18        
Jul 15 12:55 SSE 3 10 Clear   84 72     66%   90 30.18        
Jul 15 12:35 SW 5 10 Clear   82 72     70%   87 30.19        
Jul 15 12:15 Calm 10 Clear   82 72     70%   87 30.19        
Jul 15 11:55 E 6 10 Clear   84 72     66%   90 30.19        
Jul 15 11:35 SSE 5 10 Clear CLR 84 72     66%   90 30.19        
Jul 15 11:15 Calm 10 Clear   82 72     70%   87 30.18        
Jul 15 10:55 Calm 10 Clear   82 72     70%   87 30.18        
Jul 15 10:35 NE 3 10 Clear   81 73     79%   85 30.18        
Jul 15 10:15 ESE 3 10 Clear CLR 79 73     84%   82 30.18        
Jul 15 09:55 SE 3 10 Clear   77 73     89%   79 30.18        
Jul 15 09:35 ESE 3 10 Clear   77 73     89%   79 30.19        
Jul 15 09:15 Calm 10 Clear   75 75     100%   77 30.19        
Jul 15 08:55 Calm 10 Clear   73 73     100%   75 30.19        
Jul 15 08:35 Calm 10 Mostly Cloudy BKN048 72 72     100%   73 30.2        
Jul 15 08:15 Calm 10 Clear   72 72     100%   73 30.19        
Jul 15 07:55 Calm 0.5 Clear   70 70     100%     30.19        
Jul 15 07:35 Calm 5 Clear   70 70     100%     30.18        
Jul 15 07:15 Calm 0.25 Clear   70 70     100%     30.18        
Jul 15 06:55 Calm 0.75 Clear   70 70     100%     30.18        
Jul 15 06:35 Calm 0.75 Clear   70 70     100%     30.18        
Jul 15 06:15 Calm 1.25 Clear   70 70     100%     30.18        
Jul 15 05:55 Calm 1 Clear   70 70     100%     30.17        
Jul 15 05:35 Calm 5 Clear   70 70     100%     30.17        
Jul 15 05:15 Calm 10 Clear   70 70     100%     30.17        
Jul 15 04:55 Calm 9 Clear   70 70     100%     30.16        
Jul 15 04:35 Calm 10 Clear   70 70     100%     30.16        
Jul 15 04:15 Calm 4 Clear   70 70     100%     30.16        
Jul 15 03:55 Calm 10 Clear   72 72     100%   73 30.16        
Jul 15 03:35 Calm 10 Clear   72 72     100%   73 30.16        
Jul 15 03:15 Calm 10 Clear   72 72     100%   73 30.16        
Jul 15 02:55 Calm 10 Clear   72 72     100%   73 30.16        
Jul 15 02:35 Calm 10 Clear   72 72     100%   73 30.17        
Jul 15 02:15 Calm 10 Clear   72 72     100%   73 30.18        
Jul 15 01:55 Calm 10 Clear   72 72     100%   73 30.19        
Jul 15 01:35 Calm 10 Clear   72 72     100%   73 30.19        
Jul 15 01:15 Calm 10 Clear   72 72     100%   73 30.19        
Jul 15 00:55 Calm 10 Clear   72 72     100%   73 30.19        
Jul 15 00:35 Calm 10 Clear   72 72     100%   73 30.2        
Jul 15 00:15 Calm 10 Clear CLR 73 73     100%   75 30.2        
Jul 14 23:55 Calm 10 Clear   72 72     100%   73 30.2        
Jul 14 23:35 Calm 10 Clear   73 73     100%   75 30.2        
Jul 14 23:15 Calm 10 Clear   73 73     100%   75 30.2        
Jul 14 22:55 Calm 10 Clear CLR 73 73     100%   75 30.2        
Jul 14 22:35 Calm 10 Clear CLR 73 73     100%   75 30.19        
Jul 14 22:15 Calm 10 Clear   73 73     100%   75 30.18        
Jul 14 21:55 Calm 10 Clear   73 73     100%   75 30.18        
Jul 14 21:35 Calm 10 Clear   75 75     100%   77 30.17        
Jul 14 21:15 Calm 10 Clear   75 75     100%   77 30.17        
Jul 14 20:55 Calm 10 Clear   77 75     94%   79 30.16        
Jul 14 20:35 Calm 10 Clear   79 73     84%   82 30.16        
Jul 14 20:15 Calm 10 Clear   81 73     79%   85 30.16        
Jul 14 19:55 Calm 10 Clear   81 73     79%   85 30.16        
Jul 14 19:35 Calm 10 Clear CLR 82 73     74%   88 30.17        
Jul 14 19:15 Calm 10 Clear   79 73     84%   82 30.17        
Jul 14 18:55 Calm 10 Clear   79 73     84%   82 30.17        
Jul 14 18:35 Calm 10 Clear CLR 79 73     84%   82 30.17        
Jul 14 18:15 Calm 10 Clear   79 73     84%   82 30.17        
Jul 14 17:55 Calm 10 Clear   77 72     83%   78 30.18        
Jul 14 17:35 SSW 3 10 Clear   77 72     83%   78 30.18        
Jul 14 17:15 SW 3 10 Clear   77 73     89%   79 30.18        
Jul 14 16:55 Calm 10 Clear   79 73     84%   82 30.19        
Jul 14 16:35 WNW 5 10 Partly Cloudy FEW028 SCT035 81 73     79%   85 30.19        
Jul 14 16:15 NW 5 10 Clear   81 73     79%   85 30.19        
Jul 14 15:55 Calm 10 Clear   82 72     70%   87 30.18        
Jul 14 15:35 Calm 10 Clear   82 72     70%   87 30.19        
Jul 14 15:15 N 5 10 Clear   84 72     66%   90 30.19        
Jul 14 14:55 Calm 10 Clear   82 70     66%   86 30.19        
Jul 14 14:35 W 3 10 Clear CLR 82 68     62%   85 30.2        
Jul 14 14:15 W 3 10 Clear   82 68     62%   85 30.21        
Jul 14 13:55 WSW 3 10 Clear   81 70     70%   84 30.21        
Jul 14 13:35 W 3 10 Clear CLR 81 68     66%   83 30.21        
Jul 14 13:15 Calm 10 Clear   81 72     74%   85 30.22        
Jul 14 12:55 Calm 10 Clear   81 72     74%   85 30.23        
Jul 14 12:35 NNW 7 10 Clear   82 70     66%   86 30.23        
Jul 14 12:15 W 5 10 Clear   79 72     79%   82 30.24        
Jul 14 11:55 NNW 6 10 Clear   79 70     74%   80 30.24        
Jul 14 11:35 Calm 10 Clear   77 72     83%   78 30.24        
Jul 14 11:15 Calm 10 Clear   75 70     83%   76 30.24        
Jul 14 10:55 Calm 10 Clear   75 72     89%   77 30.24        
Jul 14 10:35 Calm 10 Clear   75 72     89%   77 30.24        
Jul 14 10:15 Calm 10 Clear   73 70     89%   75 30.24        
Jul 14 09:55 Calm 10 Clear   72 70     94%   73 30.24        
Jul 14 09:35 Calm 10 Clear   72 70     94%   73 30.24        
Jul 14 09:15 Calm 10 Clear   72 70     94%   73 30.24        
Jul 14 08:55 Calm 10 Clear   73 68     83%   74 30.23        
Jul 14 08:35 Calm 10 Clear   70 70     100%     30.23        
Jul 14 08:15 Calm 10 Clear   68 68     100%     30.22        
Jul 14 07:55 Calm 10 Clear   68 68     100%     30.21        
Jul 14 07:35 Calm 10 Clear   66 66     100%     30.2        
Jul 14 07:15 Calm 10 Clear   66 66     100%     30.19        
Jul 14 06:55 Calm 10 Clear   66 66     100%     30.19        
Jul 14 06:35 Calm 10 Clear   66 66     100%     30.18        
Jul 14 06:15 Calm 10 Clear   66 66     100%     30.17        
Jul 14 05:55 Calm 4 Clear   66 66     100%     30.17        
Jul 14 05:35 Calm 10 Clear   68 68     100%     30.16        
Jul 14 05:15 Calm 10 Clear   68 68     100%     30.15        
Jul 14 04:55 Calm 10 Mostly Clear FEW042 68 68     100%     30.15        
Jul 14 04:35 Calm 10 Clear   68 68     100%     30.15        
Jul 14 04:15 Calm 10 Clear   68 68     100%     30.15        
Jul 14 03:55 Calm 10 Clear   68 68     100%     30.15        
Jul 14 03:35 Calm 10 Clear   68 68     100%     30.15        
Jul 14 03:15 Calm 10 Clear   68 68     100%     30.15        
Jul 14 02:55 Calm 10 Clear   68 68     100%     30.15        
Jul 14 02:35 Calm 10 Clear CLR 70 70     100%     30.16        
Jul 14 02:15 Calm 10 Clear   70 70     100%     30.15        
Jul 14 01:55 Calm 10 Clear   70 70     100%     30.15        
Jul 14 01:35 SSW 3 10 Clear   72 70     94%   73 30.16        
Jul 14 01:15 Calm 10 Clear   72 70     94%   73 30.16        
Jul 14 00:55 Calm 10 Clear   72 70     94%   73 30.17        
Jul 14 00:35 SW 7 10 Clear   72 72     100%   73 30.17        
Jul 14 00:15 WSW 3 10 Clear   72 72     100%   73 30.17        
Jul 13 23:55 SW 5 10 Clear   72 72     100%   73 30.16        
Jul 13 23:35 SSW 7 10 Clear   73 72     94%   75 30.16        
Jul 13 23:15 Calm 10 Clear   73 70     89%   75 30.15        
Jul 13 22:55 WSW 5 10 Mostly Clear FEW041 73 70     89%   75 30.15        
Jul 13 22:35 WSW 5 10 Mostly Cloudy BKN041 75 72     89%   77 30.14        
Jul 13 22:15 SW 9 10 Partly Cloudy SCT039 75 72     89%   77 30.13        
Jul 13 21:55 WSW 3 10 Clear   75 75     100%   77 30.12        
Jul 13 21:35 Calm 10 Clear CLR 75 75     100%   77 30.12        
Jul 13 21:15 Calm 10 Clear   75 75     100%   77 30.11        
Jul 13 20:55 Calm 10 Clear   75 75     100%   77 30.1        
Jul 13 20:35 SE 5 10 Partly Cloudy FEW042 SCT049 75 75     100%   77 30.1        
Jul 13 20:15 SSE 6 10 Clear   75 75     100%   77 30.1        
Jul 13 19:55 Calm 10 Clear   77 75     94%   79 30.08        
Jul 13 19:35 Calm 10 Clear   77 75     94%   79 30.07        
Jul 13 19:15 SSE 6 10 Clear CLR 77 75     94%   79 30.07        
Jul 13 18:55 Calm 10 Clear   77 75     94%   79 30.06        
Jul 13 18:35 Calm 10 Clear   81 75     84%   86 30.05        
Jul 13 18:15 Calm 10 Clear   81 75     84%   86 30.05        
Jul 13 17:55 S 3 10 Partly Cloudy SCT040 82 73     74%   88 30.07        
Jul 13 17:35 SW 5 10 Clear   82 75     79%   89 30.07        
Jul 13 17:15 SW 6 10 Clear   82 73     74%   88 30.07        
Jul 13 16:55 SW 5 10 Clear   82 73     74%   88 30.07        
Jul 13 16:35 Calm 10 Clear   86 72     62%   92 30.06        
Jul 13 16:15 NNW 3 10 Clear   86 72     62%   92 30.05        
Jul 13 15:55 NE 5 10 Clear   88 72     59%   94 30.05        
Jul 13 15:35 NNW 5 10 Clear   88 72     59%   94 30.06        
Jul 13 15:15 Calm 10 Clear   88 72     59%   94 30.06        
Jul 13 14:55 N 6 10 Clear   86 72     62%   92 30.07        
Jul 13 14:35 Calm 10 Clear   86 72     62%   92 30.07        
Jul 13 14:15 NE 3 10 Clear   86 73     66%   93 30.07        
Jul 13 13:55 Calm 10 Clear   86 72     62%   92 30.07        
Jul 13 13:35 N 7 10 Clear   86 72     62%   92 30.08        
Jul 13 13:15 Calm 10 Clear   84 72     66%   90 30.09        
Jul 13 12:55 Calm 10 Clear   84 73     70%   91 30.09        
Jul 13 12:35 Calm 10 Clear   84 73     70%   91 30.1        
Jul 13 12:15 NW 3 10 Clear   82 73     74%   88 30.1        
Jul 13 11:55 Calm 10 Clear   82 73     74%   88 30.1        
Jul 13 11:35 Calm 10 Clear   82 73     74%   88 30.11        
Jul 13 11:15 SSW 3 10 Clear   81 73     79%   85 30.12        
Jul 13 10:55 W 3 10 Mostly Clear FEW060 81 72     74%   85 30.12        
Jul 13 10:35 Calm 10 Clear   81 72     74%   85 30.12        
Jul 13 10:15 Calm 10 Clear   77 73     89%   79 30.11        
Jul 13 09:55 Calm 10 Clear   77 72     83%   78 30.11        
Jul 13 09:35 Calm 10 Clear   73 72     94%   75 30.1        
Jul 13 09:15 Calm 10 Clear   72 72     100%   73 30.1        
Jul 13 08:55 Calm 9 Clear   68 68     100%     30.1        
Jul 13 08:35 Calm 9 Clear   68 68     100%     30.09        
Jul 13 08:15 SSE 5 8 Clear   68 68     100%     30.08        
Jul 13 07:55 Calm 6 Clear   68 68     100%     30.07        
Jul 13 07:35 Calm 1 Clear   66 66     100%     30.07        
Jul 13 06:55 Calm   Clear   66 66     100%     30.06        
Jul 13 06:35 Calm 5 Clear   64 64     100%     30.06        
Jul 13 06:15 Calm 0.5 Cloudy OVC001 64 64     100%     30.04        
Jul 13 05:55 Calm   Clear   66 66     100%     30.03        
Jul 13 05:35 Calm   Clear   66 66     100%     30.03        
Jul 13 05:15 Calm   Clear   64 64     100%     30.02        
Jul 13 04:55 Calm   Clear   66 66     100%     30.02        
Jul 13 04:35 Calm 3 Clear   66 66     100%     30.01        
Jul 13 04:15 Calm 4 Clear   66 66     100%     30.01        
Notice The following observation data may not be complete
Jul 13 03:55   4 Clear            %              
Jul 13 03:35 Calm 5 Clear   66 66     100%     30.01        
Jul 13 03:15 Calm 6 Clear   66 66     100%     30.02        
Jul 13 02:55 Calm 0.5 Clear   66 66     100%     30.02        
Jul 13 02:35 Calm 1 Clear   66 66     100%     30.02        
Jul 13 02:15 S 3   Clear   66 66     100%     30.02        
Jul 13 01:55 Calm 3 Clear   68 68     100%     30.01        
Jul 13 01:35 Calm 4 Clear   68 68     100%     30.01        
Jul 13 01:15 Calm 10 Clear   68 68     100%     30        
Jul 13 00:55 Calm 10 Clear   68 68     100%     30        
Jul 13 00:35 Calm 10 Clear CLR 70 70     100%     30.01        
Jul 13 00:15 Calm 8 Clear   68 68     100%     30.01        
Jul 12 23:55 Calm 9 Clear   70 70     100%     30.01        
Jul 12 23:35 Calm 10 Clear   72 72     100%   73 30.01        
Jul 12 23:15 Calm 8 Clear   70 70     100%     30.01        
Jul 12 22:55 Calm 10 Clear   72 72     100%   73 30.01        
Jul 12 22:35 Calm 10 Clear CLR 73 73     100%   75 30        
Jul 12 22:15 Calm 10 Clear   73 73     100%   75 30        
Jul 12 21:55 Calm 10 Clear   73 73     100%   75 29.99        
Jul 12 21:35 Calm 10 Clear CLR 75 75     100%   77 29.99        
Jul 12 21:15 Calm 10 Clear   75 73     94%   77 29.98        
Jul 12 20:55 Calm 10 Clear   79 70     74%   80 29.98        
Jul 12 20:35 Calm 10 Clear   81 68     66%   83 29.98        
Jul 12 20:15 Calm 10 Clear   82 70     66%   86 29.97        
Jul 12 19:55 Calm 10 Clear   82 68     62%   85 29.96        
Jul 12 19:35 Calm 10 Clear   84 68     58%   87 29.95        
Jul 12 19:15 Calm 10 Clear   84 66     55%   87 29.95        
Jul 12 18:55 Calm 10 Clear   84 66     55%   87 29.95        
Jul 12 18:35 Calm 10 Clear   86 66     52%   88 29.95        
Jul 12 18:15 Calm 10 Clear   84 66     55%   87 29.95        
Jul 12 17:55 Calm 10 Clear CLR 86 66     52%   88 29.96        
Jul 12 17:35 Calm 10 Clear   86 66     52%   88 29.95        
Jul 12 17:15 NW 6 10 Clear   86 66     52%   88 29.95        
Jul 12 16:55 NNW 3 10 Mostly Clear FEW048 86 68     55%   89 29.95        
Jul 12 16:35 N 7 10 Clear   86 66     52%   88 29.95        
Jul 12 16:15 WNW 3 10 Clear   86 66     52%   88 29.96        
Jul 12 15:55 NNW 5 10 Clear   86 66     52%   88 29.97        
Jul 12 15:35 WNW 3 10 Clear   86 66     52%   88 29.97        
Jul 12 15:15 N 5 10 Clear CLR 86 68     55%   89 29.97        
Jul 12 14:55 Calm 10 Clear   86 66     52%   88 29.98        
Jul 12 14:35 WNW 3 10 Mostly Clear FEW042 84 68     58%   87 29.98        
Jul 12 14:15 NNW 6 10 Clear   82 68     62%   85 29.98        
Jul 12 13:55 Calm 10 Clear   84 66     55%   87 29.98        
Jul 12 13:35 Calm 10 Partly Cloudy SCT035 82 68     62%   85 29.99        
Jul 12 13:15 Calm 10 Partly Cloudy SCT028 82 70     66%   86 29.99        
Jul 12 12:55 Calm 10 Mostly Cloudy SCT026 BKN050 82 70     66%   86 30        
Jul 12 12:35 Calm 10 Clear   81 72     74%   85 30        
Jul 12 12:15 Calm 10 Clear   81 72     74%   85 30        
Jul 12 11:55 Calm 10 Clear   81 72     74%   85 30        
Jul 12 11:35 Calm 10 Clear   79 73     84%   82 30        
Jul 12 11:15 Calm 10 Mostly Clear FEW014 77 73     89%   79 30        
Jul 12 10:55 Calm 10 Clear   77 72     83%   78 29.99        
Jul 12 10:35 Calm 10 Clear   75 73     94%   77 29.99        
Jul 12 10:15 Calm 10 Clear   73 73     100%   75 29.99        
Jul 12 09:55 Calm 10 Clear   72 72     100%   73 29.98        
Jul 12 09:35 Calm 8 Clear   72 72     100%   73 29.98        
Jul 12 09:15 Calm 3 Clear   70 70     100%     29.98        
Jul 12 08:55 Calm 0.75 Clear   70 70     100%     29.97        
Jul 12 08:35 Calm 0.25 Clear   68 68     100%     29.97        
Jul 12 08:15 Calm   Clear   68 68     100%     29.96        
Jul 12 07:55 Calm   Clear   68 68     100%     29.96        
Jul 12 07:35 Calm   Clear   68 68     100%     29.95        
Jul 12 07:15 Calm   Clear   68 68     100%     29.95        
Jul 12 06:55 Calm   Clear   68 68     100%     29.94        
Jul 12 06:35 Calm   Clear   68 68     100%     29.94        
Jul 12 06:15 Calm   Clear   68 68     100%     29.94        
Jul 12 05:55 Calm   Clear   68 68     100%     29.93        
Jul 12 05:35 Calm   Clear   68 68     100%     29.93        
Jul 12 05:15 Calm   Clear   68 68     100%     29.93        
Jul 12 04:55 Calm 0.25 Cloudy OVC001 68 68     100%     29.92        
Jul 12 04:35 Calm   Clear   68 68     100%     29.93        
Jul 12 04:15 Calm   Clear   68 68     100%     29.93        
Jul 12 03:55 Calm 0.25 Cloudy OVC001 68 68     100%     29.93        
Jul 12 03:35 Calm   Clear   68 68     100%     29.93        
Jul 12 03:15 Calm   Clear   68 68     100%     29.93        
Jul 12 02:55 Calm   Clear   68 68     100%     29.93        
Jul 12 02:35 Calm   Clear   68 68     100%     29.93        
Jul 12 02:15 Calm 0.25 Cloudy OVC001 68 68     100%     29.93        
Jul 12 01:55 Calm 0.5 Cloudy OVC001 68 68     100%     29.93        
Jul 12 01:35 Calm 0.75 Clear   70 70     100%     29.93        
Jul 12 01:15 Calm 6 Cloudy BKN003 OVC065 70 70     100%     29.93        
Jul 12 00:55 Calm 1.75 Clear   70 70     100%     29.93        
Jul 12 00:35 Calm 2.5 Clear   70 70     100%     29.94        
Jul 12 00:15 Calm 7 Clear   68 68     100%     29.94        
Jul 11 23:55 Calm 8 Mostly Cloudy BKN031 68 68     100%     29.94        
Jul 11 23:35 Calm 7 Clear   68 68     100%     29.93        
Jul 11 23:15 Calm 0.25 Clear   68 68     100%     29.93        
Jul 11 22:55 Calm 1.75 Clear   70 70     100%     29.94        
Jul 11 22:35 Calm 10 Clear   70 70     100%     29.94        
Jul 11 22:15 Calm 10 Clear   70 70     100%     29.94        
Jul 11 21:55 Calm 6 Clear   70 70     100%     29.93        
Jul 11 21:35 Calm 10 Clear CLR 70 70     100%     29.92        
Jul 11 21:15 Calm 8 Clear   72 72     100%   73 29.91        
Jul 11 20:55 SW 5 6 Clear   70 70     100%     29.94        
Jul 11 20:35 SSE 6 1 Clear   70 70     100%     29.94        
Jul 11 20:15 NNE 3 5 Clear   72 72     100%   73 29.94        
Jul 11 19:55 ENE 13 4 Clear   72 72     100%   73 29.93        
Jul 11 19:35 ENE 6 10 Clear   75 75     100%   77 29.91        
Jul 11 19:15 ESE 8 1.75 Mostly Cloudy BKN006 BKN031 BKN110 75 75     100%   77 29.9   0    
Jul 11 18:55 S 6 3 Clear   77 77     100%   79 29.92        
Jul 11 18:35 SE 7 10 Clear   79 75     89%   82 29.9        
Jul 11 18:15 SE 6 10 Clear   82 75     79%   89 29.9        
Jul 11 17:55 SSE 7 10 Clear   82 75     79%   89 29.88        
Jul 11 17:35 SE 6 10 Clear   82 75     79%   89 29.89        
Jul 11 17:15 SSE 6 10 Clear CLR 81 75     84%   86 29.89        
Jul 11 16:55 S 8 10 Clear   81 75     84%   86 29.9        
Jul 11 16:35 S 5 10 Clear   77 75     94%   79 29.9        
Jul 11 16:15 SSE 7 10 Clear   77 75     94%   79 29.92        
Jul 11 15:55 SE 9 10 Clear   77 75     94%   79 29.93        
Jul 11 15:35 SE 10 10 Clear   79 75     89%   82 29.94        
Jul 11 15:15 SSE 8 10 Clear   75 75     100%   77 29.95        
Jul 11 14:55 SSE 10 10 Clear CLR 75 73     94%   77 29.96        
Jul 11 13:55 SE 9 10 Clear   75 75     100%   77 29.97        
Jul 11 13:35 SE 8 10 Mostly Cloudy BKN020 73 73     100%   75 29.98   0    
Notice The following observation data may not be complete
Jul 11 12:55   10 Mostly Cloudy FEW002 FEW011 BKN026          %         0    
Jul 11 12:35 SSE 7 1.25 Clear   73 73     100%   75 29.98        
Jul 11 12:15 Calm 4 Mostly Cloudy FEW032 SCT047 BKN060 75 73     94%   77 29.99        
Jul 11 11:55 Calm 10 Clear CLR 75 73     94%   77 29.99        
Jul 11 11:35 S 5 10 Clear   73 73     100%   75 29.98        
Jul 11 10:55 SSE 7 10 Clear   72 72     100%   73 30        
Jul 11 10:35 SE 5 5 Mostly Clear FEW001 70 70     100%     30   0    
Jul 11 10:15 E 5 7 Clear   68 68     100%     29.99        
Jul 11 09:55 SSE 5 1.75 Cloudy SCT001 BKN010 OVC046 68 68     100%     30   0    
Jul 11 08:55 SSE 5 1.5 Clear   68 68     100%     30        
Jul 11 08:35 Calm 1.75 Clear   68 68     100%     30.01        
Jul 11 08:15 NNW 3 2 Clear   70 70     100%     30.03        
Jul 11 07:55 WNW 6 10 Clear   72 72     100%   73 30.01        
Jul 11 07:35 W 5 1 Clear   73 73     100%   75 29.98        
Jul 11 07:15 Calm 10 Clear   72 72     100%   73 29.98        
Jul 11 06:55 Calm 8 Clear   72 72     100%   73 29.97        
Jul 11 06:35 Calm 8 Clear   72 72     100%   73 29.97        
Jul 11 06:15 Calm 7 Clear   72 72     100%   73 29.97        
Jul 11 05:55 Calm 4 Clear CLR 72 72     100%   73 29.96        
Jul 11 05:35 Calm 0.5 Mostly Cloudy BKN001 70 70     100%     29.96        
Jul 11 05:15 Calm 3 Clear   72 72     100%   73 29.97        
Jul 11 04:55 Calm 8 Clear   72 72     100%   73 29.96        
Jul 11 04:35 Calm 10 Clear CLR 72 72     100%   73 29.96        
Jul 11 03:55 Calm 6 Clear   72 72     100%   73 29.97        
Jul 11 03:35 Calm 10 Clear   72 72     100%   73 29.97        
Jul 11 03:15 Calm 8 Clear   72 72     100%   73 29.98        
Jul 11 02:55 Calm 5 Clear   73 73     100%   75 29.98        
Jul 11 02:35 Calm 4 Clear   73 73     100%   75 29.98        
Jul 11 02:15 Calm 8 Clear CLR 73 73     100%   75 29.98        
Jul 11 01:55 Calm 8 Clear   73 73     100%   75 29.99        
Jul 11 01:35 Calm 8 Clear   73 73     100%   75 29.99        
Jul 11 01:15 Calm 8 Mostly Clear FEW001 73 73     100%   75 30        
Jul 11 00:55 Calm 9 Clear   73 73     100%   75 30        
Jul 11 00:35 SSE 5 10 Clear   73 73     100%   75 30        
Jul 11 00:15 Calm 10 Clear   73 73     100%   75 30        
Jul 10 23:55 Calm 10 Clear   75 75     100%   77 30        
Jul 10 23:35 Calm 10 Clear   75 75     100%   77 30.01        
Jul 10 23:15 Calm 10 Clear   75 75     100%   77 30        
Jul 10 21:55 Calm 10 Clear   77 77     100%   79 29.99        
Jul 10 21:35 Calm 10 Clear   79 75     89%   82 29.99        
Jul 10 21:15 SSE 3 10 Clear   81 75     84%   86 29.99        
Jul 10 20:55 Calm 10 Clear   81 77     89%   87 29.99        
Jul 10 20:35 SSE 3 10 Clear   82 75     79%   89 29.99        
Jul 10 20:15 Calm 10 Clear   82 75     79%   89 29.99        
Jul 10 19:35 Calm 10 Clear   86 73     66%   93 29.99        
Jul 10 19:15 Calm 10 Clear   86 73     66%   93 29.98        
Jul 10 18:55 Calm 10 Clear CLR 86 73     66%   93 29.99        
Jul 10 18:35 Calm 10 Clear   86 72     62%   92 29.99        
Jul 10 18:15 S 5 10 Clear   86 72     62%   92 30        
Jul 10 17:55 S 7 10 Clear   86 73     66%   93 30        
Jul 10 17:35 S 6 10 Clear   86 73     66%   93 30        
Jul 10 17:15 S 6 10 Clear   86 72     62%   92 30.01        
Notice The following observation data may not be complete
Jul 10 16:55   10 Clear            %              
Jul 10 16:35 S 9 10 Clear CLR 86 73     66%   93 30.02        
Jul 10 16:15 SSE 7 10 Clear CLR 86 73     66%   93 30.03        
Notice The following observation data may not be complete
Jul 10 15:55   10 Mostly Clear FEW045          %              
Jul 10 15:35 SSE 8 10 Clear   86 73     66%   93 30.04        
Jul 10 15:15 SE 7 10 Mostly Cloudy BKN043 BKN055 86 73     66%   93 30.04        
Jul 10 14:55 SE 5 10 Clear   88 72     59%   94 30.05        
Jul 10 14:35 SW 3 10 Mostly Clear FEW043 88 72     59%   94 30.06        
Jul 10 14:15 W 3 10 Mostly Clear FEW039 FEW100 88 73     62%   96 30.05        
Jul 10 13:55 Calm 10 Clear   86 72     62%   92 30.06        
Jul 10 13:35 Calm 10 Clear   86 72     62%   92 30.06        
Jul 10 13:15 Calm 10 Clear   84 73     70%   91 30.06        
Notice The following observation data may not be complete
Jul 10 12:55   10 Mostly Clear FEW033 FEW120          %              
Jul 10 12:35 SW 3 10 Partly Cloudy SCT026 84 73     70%   91 30.07        
Jul 10 12:15 Calm 10 Mostly Cloudy BKN026 BKN090 82 75     79%   89 30.07        
Jul 10 11:55 SW 3 10 Clear   84 73     70%   91 30.07        
Jul 10 11:35 W 5 10 Clear   82 75     79%   89 30.08        
Jul 10 11:15 SW 5 10 Clear   84 75     74%   92 30.08        
Notice The following observation data may not be complete
Jul 10 10:55   10 Clear            %              
Jul 10 10:35 SW 3 10 Mostly Clear FEW018 82 75     79%   89 30.08        
Jul 10 10:15 Calm 10 Clear CLR 81 75     84%   86 30.08        
Notice The following observation data may not be complete
Jul 10 09:55   10 Mostly Clear FEW035          %              
Jul 10 09:35 Calm 10 Clear   77 75     94%   79 30.09        
Jul 10 09:15 Calm 10 Clear   77 75     94%   79 30.1        
Jul 10 08:55 SSE 3 10 Clear   75 75     100%   77 30.09        
Jul 10 08:35 ESE 3 10 Clear   73 73     100%   75 30.09        
Jul 10 08:15 Calm 8 Clear   72 72     100%   73 30.08        
Jul 10 07:55 Calm 0.75 Clear   72 72     100%   73 30.08        
Jul 10 07:35 Calm   Clear   68 68     100%     30.07        
Jul 10 07:15 Calm 5 Clear   70 70     100%     30.06        
Jul 10 06:55 Calm 3 Clear   68 68     100%     30.06        
Jul 10 06:35 Calm 2.5 Clear   68 68     100%     30.06        
Jul 10 06:15 Calm 4 Clear   70 70     100%     30.05        
Jul 10 05:55 Calm 5 Clear   70 70     100%     30.04        
Jul 10 05:35 SSE 3 8 Clear   72 72     100%   73 30.03        
Jul 10 05:15 Calm 8 Clear   72 72     100%   73 30.03        
Jul 10 04:55 Calm 5 Clear CLR 72 72     100%   73 30.03        
Jul 10 04:35 ESE 3 7 Clear   72 72     100%   73 30.03        
Jul 10 04:15 SSE 3 5 Clear   72 72     100%   73 30.03        
Jul 10 03:55 Calm 5 Clear   72 72     100%   73 30.02        
Jul 10 03:35 Calm 3 Clear CLR 72 72     100%   73 30.02        
Jul 10 03:15 Calm 7 Clear CLR 72 72     100%   73 30.02        
Jul 10 02:55 Calm 4 Mostly Clear FEW046 72 72     100%   73 30.03        
Jul 10 02:35 Calm 7 Clear   72 72     100%   73 30.03        
Jul 10 02:15 Calm 5 Clear   72 72     100%   73 30.04        
Jul 10 01:55 Calm 7 Clear   72 72     100%   73 30.05        
Jul 10 01:35 Calm 4 Clear   72 72     100%   73 30.05        
Jul 10 01:15 Calm 3 Clear   72 72     100%   73 30.04        
Jul 10 00:55 Calm 5 Clear   72 72     100%   73 30.04        
Jul 10 00:35 Calm 7 Clear   73 73     100%   75 30.04        
Jul 10 00:15 Calm 8 Clear CLR 73 73     100%   75 30.04        
Jul 09 23:55 Calm 10 Clear   73 73     100%   75 30.04        
Jul 09 23:35 Calm 8 Clear CLR 73 73     100%   75 30.04        
Jul 09 23:15 Calm 10 Clear CLR 73 73     100%   75 30.04        
Jul 09 22:55 Calm 10 Clear   75 75     100%   77 30.04        
Jul 09 22:35 Calm 10 Clear   75 75     100%   77 30.04        
Jul 09 22:15 Calm 10 Clear   75 75     100%   77 30.04        
Jul 09 21:55 Calm 10 Clear   75 75     100%   77 30.03        
Jul 09 21:35 Calm 10 Clear CLR 77 77     100%   79 30.02        
Jul 09 21:15 Calm 10 Clear   79 75     89%   82 30.02        
Jul 09 20:55 Calm 10 Clear   81 75     84%   86 30.02        
Jul 09 20:35 Calm 10 Clear CLR 82 73     74%   88 30.01        
Jul 09 20:15 N 3 10 Clear   84 72     66%   90 30        
Jul 09 19:55 N 3 10 Clear   86 72     62%   92 30        
Jul 09 19:35 Calm 10 Clear CLR 86 72     62%   92 30        
Jul 09 19:15 NNW 3 10 Clear   86 72     62%   92 30        
Jul 09 18:35 NNW 3 10 Clear   88 72     59%   94 29.99        
Jul 09 18:15 NW 3 10 Partly Cloudy SCT046 90 70     52%   95 29.99        
Jul 09 17:55 NNE 5 10 Clear   90 72     56%   96 29.99        
Jul 09 17:35 ENE 5 10 Clear   90 70     52%   95 29.99        
Jul 09 17:15 NNW 3 10 Clear   90 70     52%   95 29.99        
Jul 09 16:55 Calm 10 Clear   90 68     49%   93 29.99        
Jul 09 16:35 Calm 10 Clear CLR 90 70     52%   95 30        
Jul 09 16:15 N 3 10 Clear   90 68     49%   93 29.99        
Jul 09 15:55 Calm 10 Clear   88 70     55%   93 30        
May 15 12:15 SSW 5 10 Clear   84 68     58%   87 30.01        
May 15 11:15 SSW 6 10 Clear   81 68     66%   83 30.02        
May 15 07:55 Calm 10 Clear   66 66     100%     30.02        
May 14 20:35 Calm 10 Clear   81 66     62%   83 29.97        
May 14 18:55 S 3 10 Clear   84 64     52%   86 29.98        
Notice The following observation data may not be complete
May 14 17:55   10 Clear            %              
May 14 12:35 N 3 10 Clear   82 64     55%   84 30.1        
May 13 23:35 Calm 10 Clear   68 64     88%     30.11        
May 13 21:35 Calm 10 Clear   75 61     61%   75 30.07        
May 13 20:35 WNW 5 10 Clear   79 61     54%   79 30.06        
May 13 13:55 W 6 10 Clear   84 61     45%   84 30.11        
May 13 09:15 Calm 9 Clear   66 64     94%     30.17        
May 13 08:15 Calm 9 Clear   61 61     100%     30.16        
May 13 02:35 Calm 8 Clear   59 59     100%     30.11        
May 12 16:55 WNW 8 10 Clear   84 57     40%   83 30.1        
May 12 11:55 WSW 7 10 Clear   81 59     48%   81 30.19        
May 12 09:55 SSW 6 10 Clear   75 63     65%   75 30.19        
May 12 03:55 Calm 10 Clear   63 63     100%     30.11        
May 12 01:15 SSE 7 10 Clear   64 63     94%     30.1        
May 11 22:15 Calm 10 Clear   72 59     65%   71 30.08        
May 11 14:35 SW 8 10 Clear   84 61     45%   84 30.09